Weather History for Ibiza, Spain

Change the Weather History Date:

Thursday, December 20, 2012

  Actual Average Record
Temperature  
Mean Temperature 58 °F -  
Max Temperature 65 °F 58 °F 65 °F (2012)
Min Temperature 52 °F 46 °F 41 °F (2008)
Degree Days  
Heating Degree Days 6    
Growing Degree Days 8 (Base 50)    
Moisture  
Dew Point 56 °F    
Average Humidity 86    
Maximum Humidity 100    
Minimum Humidity 50    
Precipitation  
Precipitation 0.00 in 0.05 in - ()
Sea Level Pressure  
Sea Level Pressure 30.06 in    
Wind  
Wind Speed 12 mph ()    
Max Wind Speed 24 mph    
Max Gust Speed 37 mph    
Visibility 6.5 miles    
Events      
Averages and records for this station are not official NWS values.
T = Trace of Precipitation, MM = Missing Value Source: Averaged Metar Reports

Daily Weather History Graph

Daily Weather History Graph

Search for Another Location

Airport:

Trip Planner

Search our weather history database for the weather conditions in past years. The results will help you decide how hot, cold, wet, or windy it might be!

Date:

Astronomy

Dec. 20, 2012 Rise Set
Actual Time 8:09 AM CET 5:35 PM CET
Civil Twilight 7:39 AM CET 6:05 PM CET
Nautical Twilight 7:05 AM CET 6:39 PM CET
Astronomical Twilight 6:33 AM CET 7:11 PM CET
Moon 12:43 PM CET (12/20) 12:43 AM CET (12/20)
Length of Visible Light 10h 26m
Length of Day
9h 26m
First Quarter, 52% of the Moon is Illuminated
Dec 20
First Quarter
Dec 28
Full
Jan 5
Last Quarter
Jan 11
New
Jan 19
First Quarter

Hourly Weather History & Observations

Time (CET) Temp. Dew Point Humidity Pressure Visibility Wind Dir Wind Speed Gust Speed Precip Events Conditions
12:00 AM 57.2 °F 55.4 °F 94% 30.09 in 6.2 mi SSW 11.5 mph - N/A   Mostly Cloudy
1:00 AM 58 °F 55 °F 85% 30.10 in 7 mi SSW 10.4 mph - -   Mostly Cloudy
1:00 AM 57.2 °F 57.2 °F 100% 30.09 in 6.2 mi South 10.4 mph - N/A   Mostly Cloudy
4:00 AM 57.2 °F 57.2 °F 100% 30.06 in 6.2 mi SSW 11.5 mph - N/A   Mostly Cloudy
5:30 AM 59.0 °F 57.2 °F 94% 30.04 in 6.2 mi SW 16.1 mph - N/A   Scattered Clouds
6:00 AM 59.0 °F 57.2 °F 94% 30.04 in 6.2 mi SSW 13.8 mph - N/A   Scattered Clouds
6:30 AM 59.0 °F 57.2 °F 94% 30.04 in 6.2 mi SSW 13.8 mph - N/A   Partly Cloudy
7:00 AM 57 °F 55 °F 90% 30.04 in 7 mi SSW 13.8 mph - -   Scattered Clouds
7:00 AM 57.2 °F 55.4 °F 94% 30.04 in 6.2 mi SSW 13.8 mph - N/A   Partly Cloudy
7:30 AM 57.2 °F 55.4 °F 94% 30.04 in 6.2 mi SSW 11.5 mph - N/A   Partly Cloudy
8:00 AM 57.2 °F 57.2 °F 100% 30.04 in 6.2 mi SW 12.7 mph - N/A   Partly Cloudy
8:30 AM 57.2 °F 57.2 °F 100% 30.04 in 6.2 mi SW 12.7 mph - N/A   Scattered Clouds
9:00 AM 57.2 °F 57.2 °F 100% 30.04 in 6.2 mi SW 13.8 mph - N/A   Scattered Clouds
9:30 AM 59.0 °F 59.0 °F 100% 30.04 in 6.2 mi SSW 11.5 mph - N/A   Partly Cloudy
10:00 AM 59.0 °F 57.2 °F 94% 30.06 in 6.2 mi SW 17.3 mph - N/A   Partly Cloudy
10:30 AM 60.8 °F 59.0 °F 94% 30.06 in 6.2 mi SW 15.0 mph - N/A   Partly Cloudy
11:00 AM 62.6 °F 57.2 °F 82% 30.06 in - SW 17.3 mph - N/A   Clear
11:30 AM 62.6 °F 51.8 °F 68% 30.06 in - WSW 19.6 mph 32.2 mph N/A   Clear
12:00 PM 62.6 °F 51.8 °F 68% 30.06 in - WSW 24.2 mph 36.8 mph N/A   Clear
12:30 PM 64.4 °F 51.8 °F 64% 30.06 in - WSW 24.2 mph - N/A   Clear
1:00 PM 65 °F 51 °F 50% 30.07 in 9 mi WSW 20.7 mph - -   Partly Cloudy
1:00 PM 64.4 °F 53.6 °F 68% 30.06 in - SW 20.7 mph - N/A   Clear
2:30 PM 62.6 °F 57.2 °F 82% 30.04 in - SSW 13.8 mph - N/A   Clear
3:00 PM 62.6 °F 57.2 °F 82% 30.04 in - SSW 12.7 mph - N/A   Clear
3:30 PM 62.6 °F 57.2 °F 82% 30.04 in - SW 17.3 mph - N/A   Clear
4:00 PM 60.8 °F 57.2 °F 88% 30.04 in - SW 13.8 mph - N/A   Clear
4:30 PM 60.8 °F 55.4 °F 82% 30.04 in - SW 13.8 mph - N/A   Clear
5:00 PM 60.8 °F 55.4 °F 82% 30.04 in - SW 21.9 mph - N/A   Clear
5:30 PM 60.8 °F 55.4 °F 82% 30.04 in - SW 18.4 mph - N/A   Clear
6:00 PM 60.8 °F 57.2 °F 88% 30.04 in - SSW 15.0 mph - N/A   Clear
6:30 PM 59.0 °F 57.2 °F 94% 30.04 in - SW 13.8 mph - N/A   Clear
7:00 PM 59.0 °F 57.2 °F 94% 30.06 in - SW 13.8 mph - N/A   Clear
7:30 PM 60.8 °F 57.2 °F 88% 30.06 in - SW 12.7 mph - N/A   Clear
8:00 PM 59.0 °F 57.2 °F 94% 30.06 in - SW 9.2 mph - N/A   Clear
8:30 PM 59.0 °F 57.2 °F 94% 30.09 in - SW 8.1 mph - N/A   Clear
9:00 PM 59.0 °F 57.2 °F 94% 30.09 in - WSW 5.8 mph - N/A   Clear
9:30 PM 57.2 °F 55.4 °F 94% 30.09 in - Variable 2.3 mph - N/A   Clear
10:00 PM 60.8 °F 53.6 °F 77% 30.09 in - WSW 12.7 mph - N/A   Clear
10:30 PM 60.8 °F 53.6 °F 77% 30.09 in - WSW 9.2 mph - N/A   Clear
11:00 PM 62.6 °F 51.8 °F 68% 30.09 in - WSW 13.8 mph 27.6 mph N/A   Clear
11:30 PM 62.6 °F 51.8 °F 68% 30.09 in - West 11.5 mph - N/A   Clear